STARLINK-33773, 63713

Orbit data source: Space-Track

STARLINK-33773, 63713 is a payload satellite owned by SpaceX/Seattle (US) in LEO that was launched on Mon, 28 Apr 2025 UTC via an FALCON 9 launch vehicle from the Air Force Western Test Range (AFWTR). Payload-class satellites include a variety of spacecraft equipped with specific instruments for various scientific and technological missions. These include communications satellites like Starlink; space stations such as the ISS; scientific satellites like the Hubble; Earth observation satellites from companies like Planet Labs, Umbra, and HawkEye 360; GPS; miniature CubeSats for education and research; and military/defense satellites.

Loading next visibility...
Identifier
63713, 2025-087S
Orbit
LEO
Country
Flag of USUS
Related business
Manufacturer
SpaceX/Seattle
Mission
Operational Commercial Communications
Bus & Motor
STARLINK V2MO, Unknown motor
Mass
575 kg wet, ~530 kg dry
Launch date (UTC)
2025-04-28 (1 year ago)
Launch vehicle
FALCON 9
Launch site
Air Force Western Test Range (AFWTR)
Object type
Payload
Rocket body
Debris
Shape & HBR
Box + 2 Pan, 17.7 m
Radar Cross Section
36.964 m², Large (>1 m²)

Expand to show TLE details & history
Last TLE update: 1 day ago

TLE from 1 day ago
0 STARLINK-33773
1 63713U 25087S   26170.53791333  .00013270  00000-0  43838-3 0  9994
2 63713  53.1612 105.7287 0001123  89.2749 270.8381 15.31716378 64805
Epoch: 2026-06-19T12:54Z
TLE epoch observation values (Epoch: 2026-06-19T12:54:35.711Z)
Latitude
-0.00004°
Longitude
4.31442°
Altitude
471.58 km
Speed
7.631 km/s
True Right ascension
07h 02m 54s
True Declination
0° 00' 00"
Sunlit
Object was in daylight at epoch
Visualization orbit readout
Latitude
Unknown
Longitude
Unknown
Altitude
Unknown
Speed
Unknown
Apparent Right ascension
Unknown
Apparent Declination
Unknown
Sunlit
N/A
Visualization observer readout
Local Sidereal Time
07:24:28
Azimuth
Unknown
Elevation
Unknown
Doppler factor
Unknown
Orbital elements
Apogee altitude
471.717 km
Perigee altitude
470.178 km
Semi-major axis
6,849.085 km
Eccentricity
0.00011
Inclination
53.1612°
RAAN
105.7287°
Arg. of periapsis
89.2749°
True anomaly
270.82523°
Mean anomaly
270.8381°
Eccentric anomaly
270.83167°
Mean motion
3.82908 °/min
Orbital period
94.02 mins
BSTAR
0.00043838
Loading maneuver chart data...
Computing Atmospheric mass density...
Loading historical data...
Loading historical data...
Loading historical data...
Loading historical data...
Loading historical data...
Loading historical data...
Loading historical data...

Documentation

Showing up to 5 results
|